EST,Max TemperatureF,Mean TemperatureF,Min TemperatureF,Max Dew PointF,MeanDew PointF,Min DewpointF,Max Humidity, Mean Humidity, Min Humidity, Max Sea Level PressureIn, Mean Sea Level PressureIn, Min Sea Level PressureIn, Max VisibilityMiles, Mean VisibilityMiles, Min VisibilityMiles, Max Wind SpeedMPH, Mean Wind SpeedMPH, Max Gust SpeedMPH,PrecipitationIn, CloudCover, Events, WindDirDegrees
2013-12-1,42,38,33,32,29,27,87,68,57,30.08,30.01,29.97,20,11,0,12,8,,0.00,7,,209
2013-12-2,41,37,33,36,32,30,93,82,65,29.92,29.89,29.86,20,11,4,9,6,,0.00,7,,14
2013-12-3,48,40,33,37,31,-26,76,67,7,29.91,29.88,29.85,10,8,7,12,8,,0.00,7,,134
2013-12-4,59,52,46,48,44,39,76,69,63,29.94,29.86,29.78,10,8,7,17,12,23,0.00,7,,168
2013-12-5,62,50,35,55,40,32,87,79,70,30.08,29.92,29.77,10,6,5,21,14,25,0.00,8,Rain-Snow,282
2013-12-6,35,32,28,27,25,21,93,76,64,30.30,30.22,30.17,7,5,2,13,9,,0.00,8,Snow,341
2013-12-7,26,25,24,18,15,12,69,65,59,30.57,30.53,30.46,10,8,6,15,11,,0.00,7,Snow,292
2013-12-8,30,26,23,25,17,14,86,66,55,30.50,30.30,30.04,10,9,6,16,11,20,0.00,8,Snow,125
2013-12-9,35,30,26,32,25,18,93,74,64,30.12,30.03,29.91,15,8,4,18,17,30,0.00,8,Snow,248
2013-12-10,28,26,23,14,11,3,68,56,34,30.17,30.07,29.98,15,10,5,21,16,34,0.00,6,Snow,248
2013-12-11,26,22,19,23,18,10,93,80,63,30.36,30.28,30.23,10,5,1,18,14,23,0.00,8,Snow,265
2013-12-12,21,18,14,7,2,-2,68,50,36,30.41,30.31,30.22,10,9,6,17,15,26,0.00,6,Snow,245
2013-12-13,30,26,21,19,16,10,74,65,55,30.25,30.22,30.18,10,10,7,14,10,,0.00,7,,211
2013-12-14,33,30,26,32,28,25,100,93,80,30.17,29.89,29.66,6,2,1,14,9,,0.00,8,Snow,101
2013-12-15,28,24,17,25,17,10,86,77,68,30.00,29.87,29.81,7,5,2,17,15,29,0.00,8,Snow,256
2013-12-16,24,20,15,14,12,10,79,70,54,30.15,30.10,30.03,20,9,2,16,11,,0.00,7,Snow,212
2013-12-17,28,26,24,23,21,19,86,77,69,30.02,29.96,29.90,7,5,3,16,13,28,0.00,8,Snow,244
2013-12-18,30,28,26,21,19,16,80,70,64,30.13,30.09,29.96,10,6,2,21,14,29,0.00,7,Snow,233
2013-12-19,46,42,37,34,30,23,70,60,53,30.02,29.99,29.96,10,10,10,14,12,,0.00,6,,213
2013-12-20,55,48,44,52,45,39,94,86,76,29.86,29.82,29.79,7,6,4,17,14,25,0.00,8,Rain,213
2013-12-21,51,44,37,50,42,37,100,96,93,29.83,29.76,29.61,6,2,1,9,8,,0.00,8,Rain,34
2013-12-22,62,50,37,54,44,37,100,89,72,29.97,29.77,29.54,10,6,2,21,16,34,0.00,7,Rain,274
2013-12-23,35,32,28,32,25,18,93,76,60,30.29,30.22,30.07,20,11,4,18,16,25,0.00,8,Snow,284
2013-12-24,21,20,19,16,13,10,86,73,63,30.37,30.34,30.30,10,4,1,17,16,25,0.00,8,Snow,284
2013-12-25,,,,,,,,,,,,,,,,,,,,,,
2013-12-26,,,,,,,,,,,,,,,,,,,,,,
2013-12-27,,,,,,,,,,,,,,,,,,,,,,
2013-12-28,,,,,,,,,,,,,,,,,,,,,,
2013-12-29,,,,,,,,,,,,,,,,,,,,,,
2013-12-30,,,,,,,,,,,,,,,,,,,,,,
2013-12-31,,,,,,,,,,,,,,,,,,,,,,